+ View the NASA Portal
+ Center for Near-Earth Object Studies
IMPORTANT:
The SSD Announcement email list is now available. Major changes are coming in the near future, including possible hostname and/or URL changes. To be notified of such changes, subscribe to this email list.
Please visit
this page
for more details.
Don't show this message again
JPL Small-Body Database Browser
Search:
[
help
]
5996 Julioangel (1983 NR)
Classification:
Main-belt Asteroid
SPK-ID:
2005996
[
Ephemeris
|
Orbit Diagram
|
Orbital Elements
|
Mission Design
|
Physical Parameters
|
Discovery Circumstances
]
[ show orbit diagram ]
Orbital Elements at Epoch 2458600.5 (2019-Apr-27.0) TDB
Reference:
JPL 26
(heliocentric ecliptic J2000)
Element
Value
Uncertainty (1-sigma)
Units
e
.1335324759872305
5.1812e-08
a
2.556278650734951
1.3375e-08
au
q
2.214932433189016
1.3449e-07
au
i
15.45884250772164
5.1466e-06
deg
node
312.807578772356
1.5315e-05
deg
peri
353.6701297754926
2.3949e-05
deg
M
268.688719358985
1.9736e-05
deg
t
p
2458979.145368777978
(2020-May-09.64536878)
8.1653e-05
TDB
period
1492.8312449803
4.09
1.1716e-05
3.208e-08
d
yr
n
.2411525088388345
1.8927e-09
deg/d
Q
2.897624868280885
1.5161e-08
au
Orbit Determination Parameters
# obs. used (total)
1846
data-arc span
21266 days (58.22 yr)
first obs. used
1961-02-15
last obs. used
2019-05-08
planetary ephem.
DE431
SB-pert. ephem.
SB431-N16
condition code
0
norm. resid. RMS
.42368
source
ORB
producer
Otto Matic
solution date
2019-May-30 01:13:26
Additional Information
Earth MOID
= 1.20002 au
Jupiter MOID
= 2.37552 au
T_jup
= 3.375
[ show covariance matrix ]
[
Ephemeris
|
Orbit Diagram
|
Orbital Elements
|
Mission Design
|
Physical Parameters
|
Discovery Circumstances
]
Physical Parameter Table
Parameter
Symbol
Value
Units
Sigma
Reference
Notes
absolute magnitude
H
12.5
n/a
MPO435756
diameter
diameter
8.584
km
0.070
urn:nasa:pds:neowise_diameters_albedos::2.0[mainbelt] (http://adsabs.harvard.edu/abs/2011ApJ...741...68M)
rotation period
rot_per
9.74
h
n/a
LCDB (Rev. 2019-January); Warner et al., 2009
Published Reference List:
[Durkee, R.I. (2018) Minor Planet Bull. 45, 333-335.]
geometric albedo
albedo
0.219
0.020
urn:nasa:pds:neowise_diameters_albedos::2.0[mainbelt] (http://adsabs.harvard.edu/abs/2011ApJ...741...68M)
5996 Julioangel (1983 NR)
Discovered 1983-Jul-11 by Bowell, E. at Flagstaff
Reference:
DISCOVERY.DB
Last Updated:
2003-08-29
Alternate Designations
1983 NR
= 1961 CT = 1979 OH14
[
Ephemeris
|
Orbit Diagram
|
Orbital Elements
|
Mission Design
|
Physical Parameters
|
Discovery Circumstances
]
2019-Dec-14 10:58 UT
(server date/time)
Site Manager:
Ryan S. Park
Webmaster
:
Alan B. Chamberlin